Wind_Speed
15 19 23 24 22 23 24 24 21 22 24 24 25 25 26 28 27 28 29 31 36 39 40 43 44 41 36 39 44 45 42 41 40 37 32 31 30 29 28 24 23 23 23
18 21 21 20 21 23 24 22 21 21 21 21 23 25 27 27 30 36 36 35 36 38 41 42 46 43 40 38 39 44 42 44 39 41 35 31 33 33 33 29 28 24 23
20 20 17 20 22 23 23 22 22 23 22 23 25 26 30 34 42 43 45 46 44 45 41 45 46 45 44 37 34 34 33 38 38 37 36 30 30 29 29 29 27 26 26
18 15 17 20 22 22 21 20 21 21 22 22 24 28 33 38 43 45 47 50 50 45 45 45 46 47 46 43 37 36 36 32 31 33 33 27 29 29 31 28 27 25 27
15 16 18 20 19 20 19 19 21 19 21 22 26 31 35 41 47 40 40 42 46 45 43 43 42 44 45 44 36 35 35 33 31 29 30 30 31 32 35 33 31 28 25
14 17 18 18 18 19 18 20 19 21 21 22 28 33 37 41 45 35 35 37 35 40 41 40 36 39 43 43 41 38 32 32 30 27 27 29 29 29 32 33 28 25 28
17 16 16 16 17 18 18 18 19 22 24 23 30 34 41 46 40 30 32 28 30 32 35 30 31 31 35 34 40 43 39 40 38 32 31 35 34 36 35 36 35 29 27
12 14 14 14 16 18 17 17 20 21 24 23 30 38 44 51 32 24 27 25 25 24 29 26 29 28 32 33 33 30 31 35 40 40 40 37 31 29 32 34 34 32 32
12 13 12 14 17 14 15 15 21 20 22 26 29 42 43 53 33 27 28 22 25 26 24 24 24 28 27 30 31 26 25 26 26 32 33 33 33 32 29 30 33 33 31
13 11 11 11 11 13 12 14 19 22 22 25 27 40 47 50 44 33 22 17 18 21 21 25 28 28 26 29 30 25 27 26 23 24 27 30 30 28 29 32 35 29 30
10 10 10 9 11 11 14 15 18 20 20 23 26 37 42 45 52 24 18 16 12 11 15 18 20 22 26 28 28 28 29 23 24 25 21 22 28 32 29 31 33 31 28
7 8 10 10 9 11 17 16 15 16 19 25 28 33 40 42 48 41 20 13 7 5 7 9 10 11 14 21 23 22 26 26 24 25 21 22 23 26 25 23 26 34 35
8 9 10 11 10 12 12 16 11 14 17 21 27 31 37 36 41 51 48 26 10 5 5 7 10 10 7 6 9 11 14 21 20 21 21 22 25 25 23 24 26 26 29
10 10 10 8 10 12 12 13 11 11 15 15 24 28 34 35 37 42 45 45 40 34 36 36 32 31 28 26 18 9 4 13 20 24 27 26 27 26 26 24 26 26 24
9 9 9 10 9 9 10 10 9 10 12 16 16 23 27 30 34 30 34 36 35 34 32 33 29 26 27 27 26 30 26 20 19 15 12 9 6 9 14 20 23 23 29
8 8 8 8 8 7 8 8 10 10 11 13 13 16 17 22 26 25 26 27 28 26 26 28 26 24 24 23 21 23 25 23 28 26 25 20 19 17 17 16 17 15 16
9 8 8 9 8 6 6 8 5 8 6 11 15 14 17 13 12 20 24 20 20 22 24 26 25 23 23 22 20 21 26 22 23 24 25 23 23 21 20 17 14 13 13
9 7 8 7 8 6 5 7 5 3 3 4 10 13 18 21 21 21 15 15 19 24 21 19 19 18 18 18 18 18 16 15 17 22 19 14 15 14 13 13 14 13 13
8 6 6 4 5 5 5 4 2 3 3 4 6 8 12 16 18 18 19 21 21 21 21 21 20 17 16 15 17 16 15 14 14 12 12 10 9 9 9 10 8 9 9
8 10 8 5 6 4 3 2 3 5 5 5 7 9 10 14 17 19 20 19 18 18 18 18 17 18 16 13 14 14 13 14 14 14 12 9 11 11 9 7 4 4 3
9 9 7 6 5 4 3 3 5 5 5 5 6 9 11 10 12 14 14 15 16 15 15 15 14 14 15 16 18 13 11 11 12 12 12 10 11 13 13 11 10 10 5
6 6 6 6 3 5 5 6 6 5 4 3 4 9 12 11 11 12 12 13 13 14 14 14 13 13 14 14 13 12 12 13 13 12 13 14 13 12 12 11 9 8 9
8 6 5 5 6 7 7 5 4 1 2 3 4 5 6 8 9 11 12 12 12 12 12 11 12 12 13 13 13 12 11 11 12 13 13 12 11 13 12 13 13 13 12
13 6 7 9 9 7 6 5 3 1 2 4 6 7 8 8 8 9 9 9 10 10 10 10 10 12 11 11 10 9 13 13 13 14 13 14 14 14 14 13 12 13 14
12 10 7 7 6 5 4 3 2 1 3 4 5 6 7 8 9 10 10 11 12 12 12 11 11 12 12 11 11 16 17 18 18 18 16 13 13 14 14 14 15 16 16
9 9 7 6 5 5 4 3 2 2 3 4 5 5 6 7 8 9 10 11 12 11 12 12 12 14 13 12 17 18 19 19 20 20 19 15 14 14 15 16 17 18 18
Wind_Direction
275 291 301 302 307 309 310 309 305 303 306 303 302 302 301 298 296 291 284 278 272 266 261 257 254 255 253 251 249 245 234 236 238 250 247 245 242 240 239 241 244 248 250
289 303 302 309 311 311 312 312 308 302 301 301 301 301 299 295 293 292 284 279 274 271 265 259 255 251 249 250 249 250 245 240 238 247 246 248 247 246 247 247 243 245 245
299 302 310 312 312 312 316 315 313 308 302 301 300 300 301 297 303 293 286 281 273 268 267 259 253 250 245 242 242 243 248 245 236 246 250 253 253 251 246 247 247 244 240
302 310 311 310 317 317 314 310 307 304 300 299 303 302 306 301 303 291 280 275 271 263 262 256 250 244 244 243 239 242 241 243 241 248 249 250 249 255 253 242 250 248 242
310 309 305 315 324 323 310 307 309 304 303 305 306 311 314 306 307 302 291 281 268 262 255 251 247 243 239 240 236 242 239 243 240 242 251 252 250 253 249 246 242 243 245
301 301 311 319 322 322 315 311 309 307 304 311 317 317 316 316 315 297 300 286 268 259 255 247 241 240 237 236 240 240 239 237 232 237 247 256 257 260 244 240 235 240 240
302 310 320 318 313 315 320 317 315 313 314 313 319 319 319 327 317 296 293 285 273 258 250 246 239 237 231 231 239 242 246 242 243 243 253 255 252 247 249 248 237 241 239
306 316 319 314 311 313 318 319 320 324 322 322 323 327 329 337 320 319 305 284 264 261 243 243 244 236 229 227 229 240 245 244 246 248 250 246 245 248 246 246 250 239 238
305 315 309 316 324 327 318 319 337 331 323 328 330 336 344 342 349 336 318 290 263 250 243 241 241 237 229 225 226 234 238 246 245 246 250 260 255 250 238 240 246 234 235
304 303 304 314 321 327 315 336 342 344 335 339 335 347 359 349 353 342 324 313 283 257 247 240 241 233 230 232 235 233 240 239 240 239 256 251 238 236 240 243 255 214 231
301 297 287 292 322 337 342 318 342 344 340 342 342 352 2 357 7 356 334 318 298 258 252 245 235 228 219 230 243 242 245 241 242 244 246 246 238 244 248 241 238 238 237
280 286 277 283 306 325 351 340 326 342 346 351 352 360 10 11 18 33 13 352 348 267 277 253 246 239 225 231 235 239 236 223 235 242 239 243 240 239 240 245 244 239 233
262 280 281 286 292 306 311 324 327 334 341 352 359 5 19 13 21 28 37 45 36 46 97 112 105 118 142 159 192 214 228 223 231 236 242 239 234 235 251 256 250 251 243
271 279 278 290 302 303 308 310 310 328 336 347 2 1 18 19 24 26 26 42 56 67 78 89 90 86 82 78 74 91 187 232 242 248 253 260 260 264 265 257 251 247 246
269 278 282 277 288 306 314 318 318 303 334 353 2 7 20 14 10 34 30 35 40 45 53 59 59 64 70 75 80 76 69 77 83 91 104 125 167 217 235 242 244 252 242
259 282 275 272 279 300 323 336 326 330 334 359 11 20 30 37 19 28 39 42 43 43 44 55 61 60 58 55 55 60 65 58 56 49 55 57 65 64 65 67 72 88 67
245 254 264 270 265 285 315 332 321 323 4 17 39 39 45 24 43 40 23 30 49 51 52 47 51 56 58 57 53 53 54 57 72 68 56 51 56 57 58 56 55 64 75
242 236 264 252 260 262 288 331 337 351 341 45 61 53 61 59 50 49 45 34 39 42 38 41 42 45 56 62 60 56 54 53 47 55 62 63 45 59 64 62 54 58 56
217 235 228 252 242 240 272 299 348 83 93 96 59 29 10 26 24 26 30 41 43 42 42 34 38 40 36 46 46 47 48 42 51 50 44 44 54 59 62 60 75 92 90
230 212 221 244 261 246 249 236 155 118 101 75 42 29 21 10 25 25 26 34 34 32 33 33 33 34 43 51 45 47 44 42 37 33 34 31 43 30 26 23 32 42 60
214 216 224 244 251 239 217 166 147 134 110 80 47 22 31 29 24 27 27 27 25 24 26 29 26 30 37 31 36 46 48 44 37 32 24 17 19 19 15 11 9 5 15
252 238 220 234 192 151 147 145 145 120 100 63 26 4 20 13 17 19 18 19 19 21 21 23 25 22 24 28 24 33 21 18 13 2 359 353 350 348 338 326 323 342 340
229 239 225 175 158 133 125 120 109 86 24 16 9 7 12 18 11 10 8 11 16 19 20 21 21 18 17 18 16 15 19 10 8 360 355 347 343 335 337 330 331 329 316
216 178 190 151 135 132 121 104 64 50 46 7 355 357 1 8 10 12 17 14 14 12 11 15 13 12 9 10 359 351 343 338 335 332 339 338 334 329 329 322 316 309 312
165 152 134 127 124 120 106 107 87 34 15 11 357 357 357 5 5 5 6 7 6 6 1 4 357 358 355 354 305 326 329 327 326 325 325 330 321 322 318 314 309 310 309
137 132 127 120 121 118 116 113 81 48 35 26 14 12 11 10 6 5 4 359 1 1 360 358 354 355 0 325 329 328 328 325 324 324 323 325 317 312 308 305 306 302 300
Height
1548 1546 1545 1543 1540 1537 1534 1532 1529 1526 1523 1519 1516 1513 1510 1507 1504 1501 1499 1496 1493 1491 1491 1491 1491 1492 1493 1493 1494 1492 1480 1496 1499 1502 1507 1509 1509 1509 1511 1512 1512 1513 1515
1543 1542 1540 1537 1535 1533 1530 1527 1524 1521 1518 1515 1511 1507 1503 1500 1497 1492 1488 1485 1482 1480 1478 1478 1478 1481 1482 1483 1483 1482 1483 1488 1492 1492 1498 1500 1501 1502 1501 1504 1503 1506 1507
1538 1537 1534 1533 1531 1528 1525 1522 1519 1516 1513 1510 1505 1500 1496 1491 1484 1479 1473 1469 1466 1464 1464 1464 1464 1468 1470 1473 1474 1475 1476 1479 1483 1486 1487 1491 1493 1494 1493 1496 1497 1498 1499
1533 1532 1530 1529 1527 1523 1521 1518 1514 1511 1507 1503 1499 1493 1487 1480 1471 1464 1458 1453 1449 1447 1448 1448 1450 1453 1457 1461 1464 1466 1469 1472 1476 1478 1480 1482 1485 1486 1486 1487 1490 1491 1493
1529 1528 1526 1525 1522 1519 1516 1513 1509 1505 1502 1498 1492 1485 1478 1468 1456 1446 1440 1434 1431 1431 1432 1434 1436 1440 1445 1450 1454 1456 1460 1463 1468 1471 1472 1475 1476 1478 1478 1480 1483 1484 1485
1525 1524 1522 1520 1517 1514 1512 1509 1505 1501 1496 1491 1484 1477 1468 1457 1443 1434 1426 1420 1417 1417 1417 1420 1424 1428 1433 1439 1444 1448 1452 1455 1458 1462 1464 1466 1465 1466 1470 1472 1473 1477 1479
1521 1520 1518 1515 1513 1511 1507 1504 1501 1496 1490 1485 1479 1471 1460 1444 1432 1422 1415 1409 1406 1406 1407 1410 1413 1418 1423 1430 1434 1438 1443 1446 1448 1452 1454 1455 1457 1458 1462 1464 1467 1469 1472
1517 1516 1514 1512 1510 1507 1503 1500 1496 1492 1487 1481 1474 1465 1450 1435 1422 1411 1404 1400 1398 1397 1399 1404 1405 1409 1414 1421 1425 1428 1432 1436 1438 1441 1442 1445 1449 1452 1453 1455 1460 1461 1464
1513 1512 1511 1509 1505 1502 1500 1497 1493 1488 1483 1478 1470 1459 1444 1429 1414 1404 1397 1392 1390 1391 1394 1397 1400 1402 1407 1413 1418 1422 1426 1428 1431 1432 1435 1437 1439 1442 1446 1449 1449 1452 1454
1509 1509 1507 1506 1503 1500 1497 1493 1489 1484 1480 1474 1467 1457 1441 1427 1409 1399 1391 1385 1382 1383 1387 1390 1393 1397 1402 1407 1413 1416 1418 1422 1425 1428 1427 1428 1431 1434 1437 1438 1435 1436 1446
1504 1504 1504 1503 1500 1497 1494 1489 1486 1483 1477 1471 1465 1455 1440 1428 1408 1396 1389 1383 1380 1381 1383 1385 1388 1391 1397 1402 1405 1409 1412 1417 1418 1420 1422 1423 1424 1426 1429 1430 1431 1435 1435
1500 1500 1501 1500 1498 1495 1491 1487 1485 1481 1475 1470 1464 1455 1442 1431 1414 1397 1389 1383 1380 1381 1382 1383 1386 1388 1392 1395 1399 1402 1406 1410 1413 1414 1416 1416 1417 1420 1424 1425 1426 1427 1430
1497 1497 1497 1497 1495 1492 1489 1486 1484 1479 1475 1470 1464 1456 1443 1435 1423 1409 1393 1387 1381 1382 1383 1385 1386 1387 1389 1392 1396 1400 1402 1405 1407 1410 1411 1412 1413 1414 1417 1419 1420 1420 1422
1494 1494 1493 1493 1492 1489 1488 1485 1481 1478 1474 1470 1466 1457 1449 1440 1430 1419 1410 1398 1392 1392 1388 1384 1386 1389 1392 1395 1398 1400 1401 1402 1404 1405 1407 1409 1408 1409 1409 1411 1413 1415 1417
1489 1490 1490 1490 1490 1488 1485 1483 1480 1476 1473 1470 1466 1459 1453 1445 1440 1431 1423 1415 1412 1406 1401 1398 1399 1400 1402 1404 1404 1402 1404 1403 1402 1403 1402 1402 1402 1403 1404 1404 1406 1409 1410
1486 1487 1487 1487 1486 1485 1483 1481 1478 1475 1473 1470 1466 1461 1456 1452 1446 1439 1435 1428 1424 1418 1413 1411 1412 1413 1413 1414 1413 1411 1409 1409 1409 1409 1407 1407 1405 1406 1405 1407 1406 1407 1405
1480 1482 1483 1483 1483 1482 1481 1479 1477 1474 1472 1470 1467 1463 1459 1455 1450 1446 1441 1437 1432 1427 1425 1423 1422 1421 1420 1420 1421 1419 1415 1414 1415 1413 1413 1412 1411 1412 1411 1412 1412 1413 1415
1477 1477 1480 1480 1480 1480 1478 1476 1476 1474 1471 1471 1469 1467 1463 1459 1456 1451 1447 1443 1438 1433 1433 1432 1430 1430 1428 1426 1426 1426 1425 1424 1421 1418 1418 1419 1421 1419 1417 1416 1416 1417 1418
1474 1476 1477 1477 1477 1477 1476 1475 1475 1474 1472 1470 1469 1469 1465 1461 1457 1454 1449 1446 1444 1442 1441 1438 1436 1435 1433 1430 1430 1430 1429 1428 1426 1425 1425 1424 1425 1425 1424 1421 1422 1420 1418
1472 1472 1474 1475 1475 1475 1474 1474 1474 1473 1473 1472 1470 1468 1467 1464 1460 1456 1453 1450 1449 1447 1444 1443 1442 1440 1437 1435 1434 1434 1434 1432 1430 1429 1428 1427 1426 1426 1426 1425 1425 1424 1423
1470 1470 1472 1472 1473 1472 1473 1472 1473 1473 1473 1472 1469 1468 1467 1467 1464 1461 1459 1456 1454 1452 1449 1447 1446 1444 1442 1440 1437 1436 1435 1434 1433 1432 1431 1429 1427 1427 1426 1427 1427 1425 1423
1468 1467 1469 1469 1470 1471 1472 1472 1473 1473 1473 1473 1472 1469 1467 1467 1465 1463 1461 1459 1457 1454 1452 1450 1449 1446 1444 1440 1441 1440 1440 1439 1436 1435 1433 1432 1430 1429 1428 1427 1426 1426 1426
1465 1466 1467 1468 1469 1469 1471 1472 1473 1474 1474 1473 1473 1472 1471 1469 1466 1463 1461 1459 1457 1455 1454 1453 1451 1449 1446 1445 1443 1440 1437 1438 1438 1436 1436 1435 1433 1431 1430 1429 1427 1425 1423
1462 1465 1469 1468 1469 1470 1471 1472 1471 1472 1472 1471 1471 1470 1469 1467 1466 1464 1463 1462 1460 1458 1456 1454 1452 1451 1449 1447 1445 1442 1437 1437 1436 1434 1433 1433 1431 1429 1428 1428 1426 1424 1423
1464 1468 1468 1469 1469 1470 1471 1472 1472 1473 1472 1471 1470 1469 1467 1465 1464 1463 1461 1458 1456 1455 1453 1452 1451 1449 1448 1446 1440 1438 1437 1435 1433 1432 1431 1429 1430 1428 1428 1425 1423 1420 1419
1466 1467 1468 1469 1469 1470 1470 1471 1472 1471 1471 1470 1470 1469 1467 1466 1464 1462 1460 1458 1456 1455 1453 1451 1449 1447 1446 1442 1437 1436 1434 1432 1430 1428 1426 1426 1426 1424 1424 1421 1418 1417 1415